User: anonymous   Login
Location: *
(33.3200°N, 8.3381°W)
Time: 17:17:58
(UTC+00:00)
Language:

Cosmos 1300 - Orbit

View from above orbital plane
View from above orbital plane
View from above satellite
View from above satellite

Ground track
Ground track

The orbit data is extracted from the following two-line orbital elements,

1 12785U 81082A   20185.12974434  .00000392  00000-0  17858-4 0  9999
2 12785  82.5033  53.0811 0001790  48.2012 109.8475 15.17712032120453
Epoch (UTC): 03 July 2020 03:06:49
Eccentricity: 0.0001790
inclination: 82.5033°
perigee height: 511 km
apogee height: 514 km
right ascension of ascending node: 53.0811°
argument of perigee: 48.2012°
revolutions per day: 15.17712032
mean anomaly at epoch: 109.8475°
orbit number at epoch: 12045

The dashed part of the orbit path shows where the satellite is in the earth's shadow,  

DLR